Netzbetreibername:;EG Oesterweg e.G.;;
Netz- oder Umspannebene:;Netzgebiet;;
Lastgangtyp:;Summenlast der Fahrplanprognosen f�r Lastprofilkunden;;
gesetzliche Grundlage:;� 17 Abs. 2 Nr. 4 StromNZV;;
Einheit:;kW;;
Betrachtungszeitraum:;01.01.2018;31.12.2018;
;;;
Datum;von;bis;Wert
01.01.2018;00:00;00:15;498
01.01.2018;00:15;00:30;484
01.01.2018;00:30;00:45;466
01.01.2018;00:45;01:00;444
01.01.2018;01:00;01:15;434
01.01.2018;01:15;01:30;424
01.01.2018;01:30;01:45;413
01.01.2018;01:45;02:00;407
01.01.2018;02:00;02:15;400
01.01.2018;02:15;02:30;390
01.01.2018;02:30;02:45;414
01.01.2018;02:45;03:00;418
01.01.2018;03:00;03:15;397
01.01.2018;03:15;03:30;396
01.01.2018;03:30;03:45;390
01.01.2018;03:45;04:00;399
01.01.2018;04:00;04:15;414
01.01.2018;04:15;04:30;389
01.01.2018;04:30;04:45;384
01.01.2018;04:45;05:00;388
01.01.2018;05:00;05:15;385
01.01.2018;05:15;05:30;381
01.01.2018;05:30;05:45;376
01.01.2018;05:45;06:00;363
01.01.2018;06:00;06:15;320
01.01.2018;06:15;06:30;325
01.01.2018;06:30;06:45;334
01.01.2018;06:45;07:00;344
01.01.2018;07:00;07:15;345
01.01.2018;07:15;07:30;354
01.01.2018;07:30;07:45;362
01.01.2018;07:45;08:00;381
01.01.2018;08:00;08:15;392
01.01.2018;08:15;08:30;403
01.01.2018;08:30;08:45;432
01.01.2018;08:45;09:00;464
01.01.2018;09:00;09:15;503
01.01.2018;09:15;09:30;509
01.01.2018;09:30;09:45;505
01.01.2018;09:45;10:00;525
01.01.2018;10:00;10:15;532
01.01.2018;10:15;10:30;564
01.01.2018;10:30;10:45;579
01.01.2018;10:45;11:00;612
01.01.2018;11:00;11:15;537
01.01.2018;11:15;11:30;526
01.01.2018;11:30;11:45;622
01.01.2018;11:45;12:00;634
01.01.2018;12:00;12:15;750
01.01.2018;12:15;12:30;787
01.01.2018;12:30;12:45;753
01.01.2018;12:45;13:00;746
01.01.2018;13:00;13:15;721
01.01.2018;13:15;13:30;683
01.01.2018;13:30;13:45;636
01.01.2018;13:45;14:00;673
01.01.2018;14:00;14:15;680
01.01.2018;14:15;14:30;632
01.01.2018;14:30;14:45;651
01.01.2018;14:45;15:00;691
01.01.2018;15:00;15:15;675
01.01.2018;15:15;15:30;656
01.01.2018;15:30;15:45;631
01.01.2018;15:45;16:00;615
01.01.2018;16:00;16:15;633
01.01.2018;16:15;16:30;627
01.01.2018;16:30;16:45;647
01.01.2018;16:45;17:00;676
01.01.2018;17:00;17:15;684
01.01.2018;17:15;17:30;700
01.01.2018;17:30;17:45;710
01.01.2018;17:45;18:00;747
01.01.2018;18:00;18:15;779
01.01.2018;18:15;18:30;786
01.01.2018;18:30;18:45;788
01.01.2018;18:45;19:00;783
01.01.2018;19:00;19:15;756
01.01.2018;19:15;19:30;763
01.01.2018;19:30;19:45;753
01.01.2018;19:45;20:00;731
01.01.2018;20:00;20:15;711
01.01.2018;20:15;20:30;685
01.01.2018;20:30;20:45;646
01.01.2018;20:45;21:00;620
01.01.2018;21:00;21:15;591
01.01.2018;21:15;21:30;581
01.01.2018;21:30;21:45;553
01.01.2018;21:45;22:00;558
01.01.2018;22:00;22:15;556
01.01.2018;22:15;22:30;548
01.01.2018;22:30;22:45;529
01.01.2018;22:45;23:00;495
01.01.2018;23:00;23:15;473
01.01.2018;23:15;23:30;442
01.01.2018;23:30;23:45;413
02.01.2018;23:45;00:00;395
02.01.2018;00:00;00:15;384
02.01.2018;00:15;00:30;374
02.01.2018;00:30;00:45;357
02.01.2018;00:45;01:00;346
02.01.2018;01:00;01:15;343
02.01.2018;01:15;01:30;344,8862444
02.01.2018;01:30;01:45;337,9741493
02.01.2018;01:45;02:00;339,911672
02.01.2018;02:00;02:15;327,3741312
02.01.2018;02:15;02:30;324,7214238
02.01.2018;02:30;02:45;329,637175
02.01.2018;02:45;03:00;343,8514574
02.01.2018;03:00;03:15;334,4634764
02.01.2018;03:15;03:30;348,7502234
02.01.2018;03:30;03:45;350,1998516
02.01.2018;03:45;04:00;350,133912
02.01.2018;04:00;04:15;368,6530558
02.01.2018;04:15;04:30;376,2222967
02.01.2018;04:30;04:45;375,3398089
02.01.2018;04:45;05:00;383,5858058
02.01.2018;05:00;05:15;390
02.01.2018;05:15;05:30;394
02.01.2018;05:30;05:45;410
02.01.2018;05:45;06:00;419
02.01.2018;06:00;06:15;412
02.01.2018;06:15;06:30;425
02.01.2018;06:30;06:45;447
02.01.2018;06:45;07:00;463
02.01.2018;07:00;07:15;488
02.01.2018;07:15;07:30;516
02.01.2018;07:30;07:45;543
02.01.2018;07:45;08:00;592
02.01.2018;08:00;08:15;626
02.01.2018;08:15;08:30;613
02.01.2018;08:30;08:45;623
02.01.2018;08:45;09:00;646
02.01.2018;09:00;09:15;665
02.01.2018;09:15;09:30;686
02.01.2018;09:30;09:45;693
02.01.2018;09:45;10:00;730
02.01.2018;10:00;10:15;729
02.01.2018;10:15;10:30;715
02.01.2018;10:30;10:45;737
02.01.2018;10:45;11:00;741
02.01.2018;11:00;11:15;759
02.01.2018;11:15;11:30;800
02.01.2018;11:30;11:45;796
02.01.2018;11:45;12:00;837
02.01.2018;12:00;12:15;797
02.01.2018;12:15;12:30;780
02.01.2018;12:30;12:45;751
02.01.2018;12:45;13:00;767
02.01.2018;13:00;13:15;778
02.01.2018;13:15;13:30;775
02.01.2018;13:30;13:45;728
02.01.2018;13:45;14:00;699
02.01.2018;14:00;14:15;732
02.01.2018;14:15;14:30;763
02.01.2018;14:30;14:45;759
02.01.2018;14:45;15:00;734
02.01.2018;15:00;15:15;717
02.01.2018;15:15;15:30;721
02.01.2018;15:30;15:45;705
02.01.2018;15:45;16:00;672
02.01.2018;16:00;16:15;674
02.01.2018;16:15;16:30;684
02.01.2018;16:30;16:45;670
02.01.2018;16:45;17:00;675
02.01.2018;17:00;17:15;701
02.01.2018;17:15;17:30;718
02.01.2018;17:30;17:45;744
02.01.2018;17:45;18:00;765
02.01.2018;18:00;18:15;780
02.01.2018;18:15;18:30;771
02.01.2018;18:30;18:45;771
02.01.2018;18:45;19:00;771
02.01.2018;19:00;19:15;796
02.01.2018;19:15;19:30;798
02.01.2018;19:30;19:45;772
02.01.2018;19:45;20:00;743
02.01.2018;20:00;20:15;733
02.01.2018;20:15;20:30;700
02.01.2018;20:30;20:45;658
02.01.2018;20:45;21:00;633
02.01.2018;21:00;21:15;601
02.01.2018;21:15;21:30;612
02.01.2018;21:30;21:45;577
02.01.2018;21:45;22:00;602
02.01.2018;22:00;22:15;575
02.01.2018;22:15;22:30;571
02.01.2018;22:30;22:45;552
02.01.2018;22:45;23:00;517
02.01.2018;23:00;23:15;506
02.01.2018;23:15;23:30;475
02.01.2018;23:30;23:45;430
03.01.2018;23:45;00:00;415
03.01.2018;00:00;00:15;398
03.01.2018;00:15;00:30;378
03.01.2018;00:30;00:45;363
03.01.2018;00:45;01:00;348
03.01.2018;01:00;01:15;339
03.01.2018;01:15;01:30;341
03.01.2018;01:30;01:45;343
03.01.2018;01:45;02:00;346
03.01.2018;02:00;02:15;348
03.01.2018;02:15;02:30;344
03.01.2018;02:30;02:45;337
03.01.2018;02:45;03:00;347
03.01.2018;03:00;03:15;341
03.01.2018;03:15;03:30;350,0698062
03.01.2018;03:30;03:45;355,1352168
03.01.2018;03:45;04:00;343,4597498
03.01.2018;04:00;04:15;360,7565528
03.01.2018;04:15;04:30;368,9117938
03.01.2018;04:30;04:45;370
03.01.2018;04:45;05:00;366
03.01.2018;05:00;05:15;369
03.01.2018;05:15;05:30;372
03.01.2018;05:30;05:45;398
03.01.2018;05:45;06:00;421
03.01.2018;06:00;06:15;405
03.01.2018;06:15;06:30;416
03.01.2018;06:30;06:45;433
03.01.2018;06:45;07:00;440
03.01.2018;07:00;07:15;466
03.01.2018;07:15;07:30;504
03.01.2018;07:30;07:45;536
03.01.2018;07:45;08:00;584
03.01.2018;08:00;08:15;610
03.01.2018;08:15;08:30;629
03.01.2018;08:30;08:45;617
03.01.2018;08:45;09:00;626
03.01.2018;09:00;09:15;666
03.01.2018;09:15;09:30;653
03.01.2018;09:30;09:45;664
03.01.2018;09:45;10:00;675
03.01.2018;10:00;10:15;692
03.01.2018;10:15;10:30;716
03.01.2018;10:30;10:45;705
03.01.2018;10:45;11:00;729
03.01.2018;11:00;11:15;756
03.01.2018;11:15;11:30;735
03.01.2018;11:30;11:45;745
03.01.2018;11:45;12:00;785
03.01.2018;12:00;12:15;795
03.01.2018;12:15;12:30;842
03.01.2018;12:30;12:45;844
03.01.2018;12:45;13:00;826
03.01.2018;13:00;13:15;830
03.01.2018;13:15;13:30;828
03.01.2018;13:30;13:45;795
03.01.2018;13:45;14:00;778
03.01.2018;14:00;14:15;770
03.01.2018;14:15;14:30;782
03.01.2018;14:30;14:45;785
03.01.2018;14:45;15:00;755
03.01.2018;15:00;15:15;729
03.01.2018;15:15;15:30;722
03.01.2018;15:30;15:45;708
03.01.2018;15:45;16:00;709
03.01.2018;16:00;16:15;704
03.01.2018;16:15;16:30;697
03.01.2018;16:30;16:45;717
03.01.2018;16:45;17:00;752
03.01.2018;17:00;17:15;742
03.01.2018;17:15;17:30;736
03.01.2018;17:30;17:45;761
03.01.2018;17:45;18:00;782
03.01.2018;18:00;18:15;788
03.01.2018;18:15;18:30;784
03.01.2018;18:30;18:45;792
03.01.2018;18:45;19:00;786
03.01.2018;19:00;19:15;796
03.01.2018;19:15;19:30;797
03.01.2018;19:30;19:45;780
03.01.2018;19:45;20:00;769
03.01.2018;20:00;20:15;758
03.01.2018;20:15;20:30;698
03.01.2018;20:30;20:45;661
03.01.2018;20:45;21:00;658
03.01.2018;21:00;21:15;608
03.01.2018;21:15;21:30;601
03.01.2018;21:30;21:45;584
03.01.2018;21:45;22:00;581
03.01.2018;22:00;22:15;579
03.01.2018;22:15;22:30;568
03.01.2018;22:30;22:45;542
03.01.2018;22:45;23:00;514
03.01.2018;23:00;23:15;489
03.01.2018;23:15;23:30;464
03.01.2018;23:30;23:45;437
04.01.2018;23:45;00:00;410
04.01.2018;00:00;00:15;387
04.01.2018;00:15;00:30;368
04.01.2018;00:30;00:45;365
04.01.2018;00:45;01:00;356
04.01.2018;01:00;01:15;339
04.01.2018;01:15;01:30;339
04.01.2018;01:30;01:45;336
04.01.2018;01:45;02:00;342
04.01.2018;02:00;02:15;337
04.01.2018;02:15;02:30;323
04.01.2018;02:30;02:45;326
04.01.2018;02:45;03:00;337
04.01.2018;03:00;03:15;343
04.01.2018;03:15;03:30;353
04.01.2018;03:30;03:45;357
04.01.2018;03:45;04:00;348
04.01.2018;04:00;04:15;373
04.01.2018;04:15;04:30;373
04.01.2018;04:30;04:45;373
04.01.2018;04:45;05:00;368
04.01.2018;05:00;05:15;379
04.01.2018;05:15;05:30;396
04.01.2018;05:30;05:45;410
04.01.2018;05:45;06:00;411
04.01.2018;06:00;06:15;415
04.01.2018;06:15;06:30;422
04.01.2018;06:30;06:45;442
04.01.2018;06:45;07:00;465
04.01.2018;07:00;07:15;497
04.01.2018;07:15;07:30;534
04.01.2018;07:30;07:45;551
04.01.2018;07:45;08:00;607
04.01.2018;08:00;08:15;592
04.01.2018;08:15;08:30;631
04.01.2018;08:30;08:45;623
04.01.2018;08:45;09:00;633
04.01.2018;09:00;09:15;637
04.01.2018;09:15;09:30;682
04.01.2018;09:30;09:45;686
04.01.2018;09:45;10:00;689
04.01.2018;10:00;10:15;694
04.01.2018;10:15;10:30;729
04.01.2018;10:30;10:45;724
04.01.2018;10:45;11:00;714
04.01.2018;11:00;11:15;730
04.01.2018;11:15;11:30;751
04.01.2018;11:30;11:45;792
04.01.2018;11:45;12:00;782
04.01.2018;12:00;12:15;811
04.01.2018;12:15;12:30;812
04.01.2018;12:30;12:45;791
04.01.2018;12:45;13:00;753
04.01.2018;13:00;13:15;761
04.01.2018;13:15;13:30;797
04.01.2018;13:30;13:45;777
04.01.2018;13:45;14:00;771
04.01.2018;14:00;14:15;738
04.01.2018;14:15;14:30;718
04.01.2018;14:30;14:45;722
04.01.2018;14:45;15:00;704
04.01.2018;15:00;15:15;700
04.01.2018;15:15;15:30;689
04.01.2018;15:30;15:45;682
04.01.2018;15:45;16:00;676
04.01.2018;16:00;16:15;686
04.01.2018;16:15;16:30;682
04.01.2018;16:30;16:45;666
04.01.2018;16:45;17:00;676
04.01.2018;17:00;17:15;676
04.01.2018;17:15;17:30;705
04.01.2018;17:30;17:45;746
04.01.2018;17:45;18:00;779
04.01.2018;18:00;18:15;799
04.01.2018;18:15;18:30;815
04.01.2018;18:30;18:45;809
04.01.2018;18:45;19:00;812
04.01.2018;19:00;19:15;811
04.01.2018;19:15;19:30;811
04.01.2018;19:30;19:45;763
04.01.2018;19:45;20:00;764
04.01.2018;20:00;20:15;719
04.01.2018;20:15;20:30;674
04.01.2018;20:30;20:45;638
04.01.2018;20:45;21:00;617
04.01.2018;21:00;21:15;624
04.01.2018;21:15;21:30;608
04.01.2018;21:30;21:45;594
04.01.2018;21:45;22:00;589
04.01.2018;22:00;22:15;608
04.01.2018;22:15;22:30;583
04.01.2018;22:30;22:45;574
04.01.2018;22:45;23:00;534
04.01.2018;23:00;23:15;502
04.01.2018;23:15;23:30;469
04.01.2018;23:30;23:45;442
05.01.2018;23:45;00:00;413
05.01.2018;00:00;00:15;411
05.01.2018;00:15;00:30;387
05.01.2018;00:30;00:45;372
05.01.2018;00:45;01:00;350
05.01.2018;01:00;01:15;357
05.01.2018;01:15;01:30;347
05.01.2018;01:30;01:45;336
05.01.2018;01:45;02:00;313
05.01.2018;02:00;02:15;332
05.01.2018;02:15;02:30;333
05.01.2018;02:30;02:45;323
05.01.2018;02:45;03:00;340
05.01.2018;03:00;03:15;347
05.01.2018;03:15;03:30;357
05.01.2018;03:30;03:45;363
05.01.2018;03:45;04:00;361
05.01.2018;04:00;04:15;382
05.01.2018;04:15;04:30;376
05.01.2018;04:30;04:45;373
05.01.2018;04:45;05:00;376
05.01.2018;05:00;05:15;375
05.01.2018;05:15;05:30;384
05.01.2018;05:30;05:45;403
05.01.2018;05:45;06:00;403
05.01.2018;06:00;06:15;411
05.01.2018;06:15;06:30;443
05.01.2018;06:30;06:45;472
05.01.2018;06:45;07:00;467
05.01.2018;07:00;07:15;498
05.01.2018;07:15;07:30;525
05.01.2018;07:30;07:45;556
05.01.2018;07:45;08:00;579
05.01.2018;08:00;08:15;620
05.01.2018;08:15;08:30;643
05.01.2018;08:30;08:45;634
05.01.2018;08:45;09:00;654
05.01.2018;09:00;09:15;680
05.01.2018;09:15;09:30;678
05.01.2018;09:30;09:45;673
05.01.2018;09:45;10:00;709
05.01.2018;10:00;10:15;692
05.01.2018;10:15;10:30;664
05.01.2018;10:30;10:45;689
05.01.2018;10:45;11:00;727
05.01.2018;11:00;11:15;748
05.01.2018;11:15;11:30;760
05.01.2018;11:30;11:45;806
05.01.2018;11:45;12:00;854
05.01.2018;12:00;12:15;857
05.01.2018;12:15;12:30;843
05.01.2018;12:30;12:45;846
05.01.2018;12:45;13:00;818
05.01.2018;13:00;13:15;791
05.01.2018;13:15;13:30;775
05.01.2018;13:30;13:45;709
05.01.2018;13:45;14:00;750
05.01.2018;14:00;14:15;707
05.01.2018;14:15;14:30;689
05.01.2018;14:30;14:45;699
05.01.2018;14:45;15:00;696
05.01.2018;15:00;15:15;687
05.01.2018;15:15;15:30;690
05.01.2018;15:30;15:45;687
05.01.2018;15:45;16:00;701
05.01.2018;16:00;16:15;669
05.01.2018;16:15;16:30;655
05.01.2018;16:30;16:45;665
05.01.2018;16:45;17:00;681
05.01.2018;17:00;17:15;714
05.01.2018;17:15;17:30;719
05.01.2018;17:30;17:45;759
05.01.2018;17:45;18:00;783
05.01.2018;18:00;18:15;806
05.01.2018;18:15;18:30;823
05.01.2018;18:30;18:45;857
05.01.2018;18:45;19:00;845
05.01.2018;19:00;19:15;820
05.01.2018;19:15;19:30;783
05.01.2018;19:30;19:45;770
05.01.2018;19:45;20:00;757
05.01.2018;20:00;20:15;732
05.01.2018;20:15;20:30;703
05.01.2018;20:30;20:45;676
05.01.2018;20:45;21:00;645
05.01.2018;21:00;21:15;603
05.01.2018;21:15;21:30;610
05.01.2018;21:30;21:45;589
05.01.2018;21:45;22:00;592
05.01.2018;22:00;22:15;597
05.01.2018;22:15;22:30;601
05.01.2018;22:30;22:45;581
05.01.2018;22:45;23:00;549
05.01.2018;23:00;23:15;517
05.01.2018;23:15;23:30;498
05.01.2018;23:30;23:45;459
06.01.2018;23:45;00:00;445
06.01.2018;00:00;00:15;430
06.01.2018;00:15;00:30;421
06.01.2018;00:30;00:45;404
06.01.2018;00:45;01:00;388
06.01.2018;01:00;01:15;373
06.01.2018;01:15;01:30;371
06.01.2018;01:30;01:45;369
06.01.2018;01:45;02:00;366
06.01.2018;02:00;02:15;357
06.01.2018;02:15;02:30;347
06.01.2018;02:30;02:45;349
06.01.2018;02:45;03:00;359
06.01.2018;03:00;03:15;363
06.01.2018;03:15;03:30;364
06.01.2018;03:30;03:45;375
06.01.2018;03:45;04:00;368
06.01.2018;04:00;04:15;369
06.01.2018;04:15;04:30;367
06.01.2018;04:30;04:45;393
06.01.2018;04:45;05:00;380
06.01.2018;05:00;05:15;381
06.01.2018;05:15;05:30;374
06.01.2018;05:30;05:45;373
06.01.2018;05:45;06:00;365
06.01.2018;06:00;06:15;341
06.01.2018;06:15;06:30;365
06.01.2018;06:30;06:45;366
06.01.2018;06:45;07:00;405
06.01.2018;07:00;07:15;419
06.01.2018;07:15;07:30;445
06.01.2018;07:30;07:45;470
06.01.2018;07:45;08:00;491
06.01.2018;08:00;08:15;544
06.01.2018;08:15;08:30;581
06.01.2018;08:30;08:45;576
06.01.2018;08:45;09:00;609
06.01.2018;09:00;09:15;621
06.01.2018;09:15;09:30;636
06.01.2018;09:30;09:45;657
06.01.2018;09:45;10:00;678
06.01.2018;10:00;10:15;663
06.01.2018;10:15;10:30;658
06.01.2018;10:30;10:45;649
06.01.2018;10:45;11:00;685
06.01.2018;11:00;11:15;708
06.01.2018;11:15;11:30;752
06.01.2018;11:30;11:45;774
06.01.2018;11:45;12:00;752
06.01.2018;12:00;12:15;774
06.01.2018;12:15;12:30;775
06.01.2018;12:30;12:45;760
06.01.2018;12:45;13:00;775
06.01.2018;13:00;13:15;786
06.01.2018;13:15;13:30;796
06.01.2018;13:30;13:45;763
06.01.2018;13:45;14:00;770
06.01.2018;14:00;14:15;783
06.01.2018;14:15;14:30;765
06.01.2018;14:30;14:45;743
06.01.2018;14:45;15:00;731
06.01.2018;15:00;15:15;732
06.01.2018;15:15;15:30;711
06.01.2018;15:30;15:45;677
06.01.2018;15:45;16:00;666
06.01.2018;16:00;16:15;709
06.01.2018;16:15;16:30;701
06.01.2018;16:30;16:45;677
06.01.2018;16:45;17:00;714
06.01.2018;17:00;17:15;713
06.01.2018;17:15;17:30;746
06.01.2018;17:30;17:45;755
06.01.2018;17:45;18:00;799
06.01.2018;18:00;18:15;793
06.01.2018;18:15;18:30;803
06.01.2018;18:30;18:45;816
06.01.2018;18:45;19:00;807
06.01.2018;19:00;19:15;803
06.01.2018;19:15;19:30;797
06.01.2018;19:30;19:45;758
06.01.2018;19:45;20:00;745
06.01.2018;20:00;20:15;734
06.01.2018;20:15;20:30;691
06.01.2018;20:30;20:45;662
06.01.2018;20:45;21:00;625
06.01.2018;21:00;21:15;601
06.01.2018;21:15;21:30;592
06.01.2018;21:30;21:45;567
06.01.2018;21:45;22:00;582
06.01.2018;22:00;22:15;586
06.01.2018;22:15;22:30;588
06.01.2018;22:30;22:45;582
06.01.2018;22:45;23:00;560
06.01.2018;23:00;23:15;551
06.01.2018;23:15;23:30;534
06.01.2018;23:30;23:45;513
07.01.2018;23:45;00:00;485
07.01.2018;00:00;00:15;457
07.01.2018;00:15;00:30;436
07.01.2018;00:30;00:45;413
07.01.2018;00:45;01:00;399
07.01.2018;01:00;01:15;396
07.01.2018;01:15;01:30;379
07.01.2018;01:30;01:45;357
07.01.2018;01:45;02:00;381
07.01.2018;02:00;02:15;375
07.01.2018;02:15;02:30;362
07.01.2018;02:30;02:45;370
07.01.2018;02:45;03:00;367
07.01.2018;03:00;03:15;369
07.01.2018;03:15;03:30;362
07.01.2018;03:30;03:45;361
07.01.2018;03:45;04:00;371
07.01.2018;04:00;04:15;383
07.01.2018;04:15;04:30;371
07.01.2018;04:30;04:45;366
07.01.2018;04:45;05:00;370
07.01.2018;05:00;05:15;378
07.01.2018;05:15;05:30;375
07.01.2018;05:30;05:45;371
07.01.2018;05:45;06:00;357
07.01.2018;06:00;06:15;333
07.01.2018;06:15;06:30;325
07.01.2018;06:30;06:45;339
07.01.2018;06:45;07:00;351
07.01.2018;07:00;07:15;369
07.01.2018;07:15;07:30;381
07.01.2018;07:30;07:45;416
07.01.2018;07:45;08:00;424
07.01.2018;08:00;08:15;470
07.01.2018;08:15;08:30;530
07.01.2018;08:30;08:45;546
07.01.2018;08:45;09:00;579
07.01.2018;09:00;09:15;611
07.01.2018;09:15;09:30;631
07.01.2018;09:30;09:45;654
07.01.2018;09:45;10:00;671
07.01.2018;10:00;10:15;660
07.01.2018;10:15;10:30;619
07.01.2018;10:30;10:45;607
07.01.2018;10:45;11:00;632
07.01.2018;11:00;11:15;664
07.01.2018;11:15;11:30;677
07.01.2018;11:30;11:45;698
07.01.2018;11:45;12:00;757
07.01.2018;12:00;12:15;765
07.01.2018;12:15;12:30;665
07.01.2018;12:30;12:45;509
07.01.2018;12:45;13:00;483
07.01.2018;13:00;13:15;553
07.01.2018;13:15;13:30;557
07.01.2018;13:30;13:45;558
07.01.2018;13:45;14:00;512
07.01.2018;14:00;14:15;524
07.01.2018;14:15;14:30;520
07.01.2018;14:30;14:45;534
07.01.2018;14:45;15:00;531
07.01.2018;15:00;15:15;566
07.01.2018;15:15;15:30;589
07.01.2018;15:30;15:45;617
07.01.2018;15:45;16:00;616
07.01.2018;16:00;16:15;629
07.01.2018;16:15;16:30;611
07.01.2018;16:30;16:45;601
07.01.2018;16:45;17:00;626
07.01.2018;17:00;17:15;665
07.01.2018;17:15;17:30;705
07.01.2018;17:30;17:45;729
07.01.2018;17:45;18:00;739
07.01.2018;18:00;18:15;805
07.01.2018;18:15;18:30;813
07.01.2018;18:30;18:45;807
07.01.2018;18:45;19:00;809
07.01.2018;19:00;19:15;814
07.01.2018;19:15;19:30;773
07.01.2018;19:30;19:45;740
07.01.2018;19:45;20:00;770
07.01.2018;20:00;20:15;724
07.01.2018;20:15;20:30;694
07.01.2018;20:30;20:45;673
07.01.2018;20:45;21:00;644
07.01.2018;21:00;21:15;619
07.01.2018;21:15;21:30;616
07.01.2018;21:30;21:45;587
07.01.2018;21:45;22:00;588
07.01.2018;22:00;22:15;577
07.01.2018;22:15;22:30;579
07.01.2018;22:30;22:45;551
07.01.2018;22:45;23:00;521
07.01.2018;23:00;23:15;499
07.01.2018;23:15;23:30;485
07.01.2018;23:30;23:45;458
08.01.2018;23:45;00:00;446
08.01.2018;00:00;00:15;431
08.01.2018;00:15;00:30;418
08.01.2018;00:30;00:45;404
08.01.2018;00:45;01:00;395
08.01.2018;01:00;01:15;394
08.01.2018;01:15;01:30;384
08.01.2018;01:30;01:45;377
08.01.2018;01:45;02:00;381
08.01.2018;02:00;02:15;370
08.01.2018;02:15;02:30;379
08.01.2018;02:30;02:45;370
08.01.2018;02:45;03:00;379
08.01.2018;03:00;03:15;374
08.01.2018;03:15;03:30;376
08.01.2018;03:30;03:45;379
08.01.2018;03:45;04:00;374
08.01.2018;04:00;04:15;395
08.01.2018;04:15;04:30;384
08.01.2018;04:30;04:45;394
08.01.2018;04:45;05:00;411
08.01.2018;05:00;05:15;403
08.01.2018;05:15;05:30;430
08.01.2018;05:30;05:45;439
08.01.2018;05:45;06:00;438
08.01.2018;06:00;06:15;449
08.01.2018;06:15;06:30;479
08.01.2018;06:30;06:45;503
08.01.2018;06:45;07:00;536
08.01.2018;07:00;07:15;555
08.01.2018;07:15;07:30;574
08.01.2018;07:30;07:45;613
08.01.2018;07:45;08:00;637
08.01.2018;08:00;08:15;642
08.01.2018;08:15;08:30;653
08.01.2018;08:30;08:45;648
08.01.2018;08:45;09:00;668
08.01.2018;09:00;09:15;648
08.01.2018;09:15;09:30;635
08.01.2018;09:30;09:45;629
08.01.2018;09:45;10:00;613
08.01.2018;10:00;10:15;611
08.01.2018;10:15;10:30;540
08.01.2018;10:30;10:45;517
08.01.2018;10:45;11:00;541
08.01.2018;11:00;11:15;567
08.01.2018;11:15;11:30;541
08.01.2018;11:30;11:45;528
08.01.2018;11:45;12:00;544
08.01.2018;12:00;12:15;547
08.01.2018;12:15;12:30;501
08.01.2018;12:30;12:45;525
08.01.2018;12:45;13:00;497
08.01.2018;13:00;13:15;489
08.01.2018;13:15;13:30;497
08.01.2018;13:30;13:45;530
08.01.2018;13:45;14:00;536
08.01.2018;14:00;14:15;539
08.01.2018;14:15;14:30;528
08.01.2018;14:30;14:45;567
08.01.2018;14:45;15:00;533
08.01.2018;15:00;15:15;561
08.01.2018;15:15;15:30;623
08.01.2018;15:30;15:45;643
08.01.2018;15:45;16:00;635
08.01.2018;16:00;16:15;659
08.01.2018;16:15;16:30;678
08.01.2018;16:30;16:45;663
08.01.2018;16:45;17:00;696
08.01.2018;17:00;17:15;725
08.01.2018;17:15;17:30;734
08.01.2018;17:30;17:45;772
08.01.2018;17:45;18:00;834
08.01.2018;18:00;18:15;852
08.01.2018;18:15;18:30;832
08.01.2018;18:30;18:45;861
08.01.2018;18:45;19:00;836
08.01.2018;19:00;19:15;860
08.01.2018;19:15;19:30;859
08.01.2018;19:30;19:45;776
08.01.2018;19:45;20:00;779
08.01.2018;20:00;20:15;760
08.01.2018;20:15;20:30;693
08.01.2018;20:30;20:45;659
08.01.2018;20:45;21:00;638
08.01.2018;21:00;21:15;611
08.01.2018;21:15;21:30;604
08.01.2018;21:30;21:45;586
08.01.2018;21:45;22:00;591
08.01.2018;22:00;22:15;595
08.01.2018;22:15;22:30;597
08.01.2018;22:30;22:45;576
08.01.2018;22:45;23:00;548
08.01.2018;23:00;23:15;511
08.01.2018;23:15;23:30;490
08.01.2018;23:30;23:45;455
09.01.2018;23:45;00:00;425
09.01.2018;00:00;00:15;403
09.01.2018;00:15;00:30;393
09.01.2018;00:30;00:45;382
09.01.2018;00:45;01:00;378
09.01.2018;01:00;01:15;363
09.01.2018;01:15;01:30;365
09.01.2018;01:30;01:45;359
09.01.2018;01:45;02:00;360
09.01.2018;02:00;02:15;362
09.01.2018;02:15;02:30;352
09.01.2018;02:30;02:45;354
09.01.2018;02:45;03:00;360
09.01.2018;03:00;03:15;358
09.01.2018;03:15;03:30;369
09.01.2018;03:30;03:45;364
09.01.2018;03:45;04:00;367
09.01.2018;04:00;04:15;388
09.01.2018;04:15;04:30;383
09.01.2018;04:30;04:45;396
09.01.2018;04:45;05:00;400
09.01.2018;05:00;05:15;397
09.01.2018;05:15;05:30;415
09.01.2018;05:30;05:45;416
09.01.2018;05:45;06:00;440
09.01.2018;06:00;06:15;432
09.01.2018;06:15;06:30;461
09.01.2018;06:30;06:45;485
09.01.2018;06:45;07:00;518
09.01.2018;07:00;07:15;544
09.01.2018;07:15;07:30;596
09.01.2018;07:30;07:45;625
09.01.2018;07:45;08:00;631
09.01.2018;08:00;08:15;641
09.01.2018;08:15;08:30;654
09.01.2018;08:30;08:45;652
09.01.2018;08:45;09:00;656
09.01.2018;09:00;09:15;647
09.01.2018;09:15;09:30;666
09.01.2018;09:30;09:45;686
09.01.2018;09:45;10:00;652
09.01.2018;10:00;10:15;661
09.01.2018;10:15;10:30;632
09.01.2018;10:30;10:45;648
09.01.2018;10:45;11:00;651
09.01.2018;11:00;11:15;663
09.01.2018;11:15;11:30;692
09.01.2018;11:30;11:45;720
09.01.2018;11:45;12:00;724
09.01.2018;12:00;12:15;721
09.01.2018;12:15;12:30;730
09.01.2018;12:30;12:45;731
09.01.2018;12:45;13:00;720
09.01.2018;13:00;13:15;748
09.01.2018;13:15;13:30;722
09.01.2018;13:30;13:45;722
09.01.2018;13:45;14:00;718
09.01.2018;14:00;14:15;701
09.01.2018;14:15;14:30;663
09.01.2018;14:30;14:45;656
09.01.2018;14:45;15:00;648
09.01.2018;15:00;15:15;666
09.01.2018;15:15;15:30;658
09.01.2018;15:30;15:45;654
09.01.2018;15:45;16:00;657
09.01.2018;16:00;16:15;643
09.01.2018;16:15;16:30;670
09.01.2018;16:30;16:45;668
09.01.2018;16:45;17:00;679
09.01.2018;17:00;17:15;703
09.01.2018;17:15;17:30;761
09.01.2018;17:30;17:45;778
09.01.2018;17:45;18:00;790
09.01.2018;18:00;18:15;811